Hourly Data Report for March 25, 2012

All times are specified in Local Standard Time (LST). Add 1 hour to adjust for Daylight Saving Time where and when it is observed.

MIRAMICHI RCS
NEW BRUNSWICK

47°00'34.000" N
65°27'54.000" W
33.00 m
8100989
71744
ACQ

Download Data

Hourly Data (March 2012)
Hourly Data Report for March 25, 2012
TIME Temp Definition
°C
Dew Point Definition
°C
Rel Hum Definition
%
Wind Dir Definition
10's deg

Wind Spd Definition
km/h
Visibility Definition
km
Stn Press Definition
kPa
Hmdx Definition


Wind Chill Definition


Weather Definition


00:00 -2.7 -13.5 43 25 6   101.15   -5 LegendNANA
01:00 -2.6 -13.2 44 27 9   101.14   -6 LegendNANA
02:00 -2.9 -13.0 46 26 9   101.16   -6 LegendNANA
03:00 -2.5 -13.8 41 30 7   101.18   -5 LegendNANA
04:00 -2.6 -14.0 41 32 6   101.14   -5 LegendNANA
05:00 -3.3 -13.6 45 30 7   101.14   -6 LegendNANA
06:00 -5.9 -12.2 61 19 6   101.16   -9 LegendNANA
07:00 -4.4 -12.0 55 23 4   101.24   -6 LegendNANA
08:00 -0.5 -12.6 39 8 4   101.24   -2 LegendNANA
09:00 0.4 -15.2 30 5 7   101.21     LegendNANA
10:00 2.0 -15.9 25 14 4   101.13     LegendNANA
11:00 3.8 -14.7 24 1 2   101.02     LegendNANA
12:00 4.6 -16.1 21 22 13   100.96     LegendNANA
13:00 4.9 -14.2 24 22 13   100.86     LegendNANA
14:00 5.8 -14.1 22 20 15   100.72     LegendNANA
15:00 6.7 -11.5 26 20 24   100.62     LegendNANA
16:00 5.5 -11.0 29 20 17   100.55     LegendNANA
17:00 4.9 -6.7 43 22 24   100.49     LegendNANA
18:00 3.2 -2.1 68 22 24   100.47     LegendNANA
19:00 1.9 -1.3 79 22 19   100.46     LegendNANA
20:00 1.4 -0.8 85 21 19   100.40     LegendNANA
21:00 1.2 -0.4 89 21 17   100.30     LegendNANA
22:00 1.3 -0.1 90 21 19   100.20     LegendNANA
23:00 1.4 0.3 92 21 17   100.08     LegendNANA

Notes on Data Quality.

Legend

  • E = Estimated
  • M = Missing
  • NA = Not Available
Date modified: